When you browse on this site, cookies collect data to enhance your experience and personalize the content and advertising you see.
Visit our Privacy Policy to learn more. By continuing to use the site, you agree to this use of cookies and data.

Hourly Weather La Ligua

Today, 22 September, Tuesday

Time Temperature Precipitation Wind Pressure Humidity
00:00 +16°C° 0 mm 1 mps 755 mmHg 93%
01:00 +15°C° 0 mm 1 mps 755 mmHg 94%
02:00 +15°C° 0 mm 1 mps 755 mmHg 94%
03:00 +14°C° 0 mm 1 mps 755 mmHg 94%
04:00 +13°C° 0 mm 1 mps 754 mmHg 94%
05:00 +15°C° 0 mm 1 mps 755 mmHg 90%
06:00 +18°C° 0 mm 1 mps 755 mmHg 85%
07:00 +18°C° 0 mm 0 mps 755 mmHg 77%
08:00 +22°C° 0 mm 1 mps 755 mmHg 68%
09:00 +24°C° 0 mm 2 mps 755 mmHg 60%
10:00 +26°C° 0 mm 3 mps 755 mmHg 52%
11:00 +27°C° 0 mm 3 mps 755 mmHg 51%
12:00 +27°C° 0 mm 3 mps 755 mmHg 50%
13:00 +27°C° 0 mm 3 mps 754 mmHg 49%
14:00 +27°C° 0 mm 3 mps 754 mmHg 50%
15:00 +26°C° 0 mm 3 mps 754 mmHg 52%
16:00 +25°C° 0 mm 2 mps 754 mmHg 54%
17:00 +23°C° 0 mm 2 mps 754 mmHg 64%
18:00 +20°C° 0 mm 1 mps 755 mmHg 73%
19:00 +16°C° 0 mm 1 mps 755 mmHg 83%
20:00 +16°C° 0 mm 1 mps 755 mmHg 82%
21:00 +16°C° 0 mm 1 mps 755 mmHg 81%
22:00 +16°C° 0 mm 1 mps 755 mmHg 80%
23:00 +15°C° 0 mm 1 mps 755 mmHg 81%

Tomorrow, 23 September, Wednesday

Time Temperature Precipitation Wind Pressure Humidity
00:00 +15°C° 0 mm 1 mps 755 mmHg 81%
01:00 +14°C° 0 mm 1 mps 755 mmHg 82%
02:00 +14°C° 0 mm 1 mps 754 mmHg 82%
03:00 +14°C° 0 mm 1 mps 754 mmHg 81%
04:00 +13°C° 0 mm 0 mps 754 mmHg 80%
05:00 +16°C° 0 mm 0 mps 754 mmHg 72%
06:00 +19°C° 0 mm 0 mps 754 mmHg 63%
07:00 +21°C° 0 mm 0 mps 754 mmHg 55%
08:00 +25°C° 0 mm 1 mps 754 mmHg 50%
09:00 +26°C° 0 mm 2 mps 754 mmHg 46%
10:00 +28°C° 0 mm 2 mps 754 mmHg 42%
11:00 +28°C° 0 mm 3 mps 754 mmHg 41%
12:00 +29°C° 0 mm 3 mps 754 mmHg 40%
13:00 +29°C° 0 mm 3 mps 754 mmHg 39%
14:00 +28°C° 0 mm 3 mps 754 mmHg 41%
15:00 +27°C° 0 mm 3 mps 754 mmHg 43%
16:00 +26°C° 0 mm 2 mps 754 mmHg 45%
17:00 +23°C° 0 mm 2 mps 754 mmHg 56%
18:00 +20°C° 0 mm 1 mps 754 mmHg 66%
19:00 +15°C° 0 mm 0 mps 755 mmHg 77%
20:00 +15°C° 0 mm 0 mps 755 mmHg 76%
21:00 +14°C° 0 mm 0 mps 755 mmHg 76%
22:00 +14°C° 0 mm 0 mps 755 mmHg 76%
23:00 +14°C° 0 mm 0 mps 754 mmHg 77%

Day after tomorrow, 24 September, Thursday

Time Temperature Precipitation Wind Pressure Humidity
00:00 +13°C° 0 mm 0 mps 754 mmHg 78%
01:00 +13°C° 0 mm 0 mps 754 mmHg 78%
02:00 +12°C° 0 mm 0 mps 754 mmHg 79%
03:00 +12°C° 0 mm 0 mps 754 mmHg 80%
04:00 +12°C° 0 mm 0 mps 754 mmHg 80%
05:00 +14°C° 0 mm 0 mps 754 mmHg 72%
06:00 +16°C° 0 mm 0 mps 754 mmHg 64%
07:00 +18°C° 0 mm 0 mps 754 mmHg 56%
08:00 +21°C° 0 mm 1 mps 755 mmHg 53%
09:00 +23°C° 0 mm 2 mps 755 mmHg 49%
10:00 +24°C° 0 mm 3 mps 755 mmHg 46%
11:00 +24°C° 0 mm 3 mps 755 mmHg 47%
12:00 +24°C° 0 mm 3 mps 755 mmHg 48%
13:00 +24°C° 0 mm 3 mps 754 mmHg 49%
14:00 +22°C° 0 mm 3 mps 754 mmHg 53%
15:00 +20°C° 0 mm 3 mps 755 mmHg 58%
16:00 +19°C° 0 mm 3 mps 755 mmHg 63%
17:00 +17°C° 0 mm 2 mps 755 mmHg 73%
18:00 +14°C° 0 mm 1 mps 755 mmHg 83%
19:00 +10°C° 0 mm 0 mps 756 mmHg 94%
20:00 +10°C° 0 mm 0 mps 756 mmHg 94%
21:00 +10°C° 0 mm 0 mps 756 mmHg 95%
22:00 +9°C° 0 mm 0 mps 756 mmHg 96%
23:00 +10°C° 0 mm 1 mps 756 mmHg 96%

25 September, Friday

Time Temperature Precipitation Wind Pressure Humidity
00:00 +11°C° 0 mm 1 mps 756 mmHg 96%
01:00 +11°C° 0 mm 1 mps 756 mmHg 96%
02:00 +11°C° 0 mm 1 mps 756 mmHg 94%
03:00 +11°C° 0 mm 1 mps 756 mmHg 93%
04:00 +11°C° 0 mm 1 mps 756 mmHg 92%
05:00 +11°C° 0 mm 1 mps 757 mmHg 89%
06:00 +12°C° 0 mm 1 mps 757 mmHg 87%
07:00 +12°C° 0 mm 1 mps 758 mmHg 85%
08:00 +13°C° 0 mm 1 mps 757 mmHg 76%
09:00 +15°C° 0 mm 2 mps 757 mmHg 68%
10:00 +16°C° 0 mm 2 mps 757 mmHg 60%
11:00 +17°C° 0 mm 3 mps 757 mmHg 56%
12:00 +18°C° 0 mm 4 mps 757 mmHg 53%
13:00 +19°C° 0 mm 4 mps 757 mmHg 49%
14:00 +18°C° 0 mm 4 mps 757 mmHg 54%
15:00 +17°C° 0 mm 4 mps 757 mmHg 58%
16:00 +17°C° 0 mm 3 mps 757 mmHg 62%
17:00 +13°C° 0 mm 3 mps 758 mmHg 72%
18:00 +12°C° 0 mm 2 mps 758 mmHg 82%
19:00 +10°C° 0 mm 1 mps 758 mmHg 91%
20:00 +10°C° 0 mm 1 mps 758 mmHg 91%
21:00 +9°C° 0 mm 1 mps 758 mmHg 90%
22:00 +9°C° 0 mm 1 mps 758 mmHg 89%
23:00 +9°C° 0 mm 1 mps 758 mmHg 89%

26 September, Saturday

Time Temperature Precipitation Wind Pressure Humidity
00:00 +9°C° 0 mm 1 mps 757 mmHg 89%
01:00 +9°C° 0 mm 1 mps 757 mmHg 89%
02:00 +8°C° 0 mm 1 mps 757 mmHg 89%
03:00 +8°C° 0 mm 1 mps 756 mmHg 89%
04:00 +8°C° 0 mm 1 mps 756 mmHg 89%
05:00 +10°C° 0 mm 1 mps 756 mmHg 82%
06:00 +12°C° 0 mm 1 mps 756 mmHg 74%
07:00 +15°C° 0 mm 1 mps 756 mmHg 67%
08:00 +17°C° 0 mm 2 mps 756 mmHg 59%
09:00 +19°C° 0 mm 2 mps 756 mmHg 52%
10:00 +21°C° 0 mm 3 mps 756 mmHg 44%
11:00 +22°C° 0 mm 3 mps 756 mmHg 44%
12:00 +22°C° 0 mm 4 mps 756 mmHg 44%
13:00 +23°C° 0 mm 4 mps 755 mmHg 43%
14:00 +22°C° 0 mm 4 mps 755 mmHg 47%
15:00 +21°C° 0 mm 4 mps 755 mmHg 52%
16:00 +20°C° 0 mm 3 mps 755 mmHg 56%
17:00 +17°C° 0 mm 3 mps 756 mmHg 67%
18:00 +14°C° 0 mm 2 mps 756 mmHg 78%
19:00 +11°C° 0 mm 1 mps 756 mmHg 89%
20:00 +11°C° 0 mm 1 mps 756 mmHg 89%
21:00 +11°C° 0 mm 1 mps 756 mmHg 89%
22:00 +10°C° 0 mm 0 mps 756 mmHg 88%
23:00 +9°C° 0 mm 0 mps 756 mmHg 88%

27 September, Sunday

Time Temperature Precipitation Wind Pressure Humidity
00:00 +10°C° 0 mm 1 mps 755 mmHg 87%
01:00 +10°C° 0 mm 1 mps 755 mmHg 87%
02:00 +10°C° 0 mm 1 mps 755 mmHg 86%
03:00 +10°C° 0 mm 1 mps 754 mmHg 85%
04:00 +10°C° 0 mm 1 mps 754 mmHg 84%
05:00 +12°C° 0 mm 1 mps 754 mmHg 76%
06:00 +15°C° 0 mm 1 mps 755 mmHg 68%
07:00 +18°C° 0 mm 1 mps 755 mmHg 59%
08:00 +20°C° 0 mm 1 mps 754 mmHg 53%
09:00 +21°C° 0 mm 2 mps 754 mmHg 47%
10:00 +24°C° 0 mm 3 mps 754 mmHg 41%
11:00 +25°C° 0 mm 3 mps 753 mmHg 41%
12:00 +25°C° 0 mm 3 mps 753 mmHg 41%
13:00 +25°C° 0 mm 4 mps 753 mmHg 41%
14:00 +24°C° 0 mm 3 mps 753 mmHg 46%
15:00 +22°C° 0 mm 3 mps 753 mmHg 50%
16:00 +21°C° 0 mm 3 mps 752 mmHg 55%
17:00 +18°C° 0 mm 2 mps 753 mmHg 65%
18:00 +16°C° 0 mm 2 mps 753 mmHg 76%
19:00 +13°C° 0 mm 1 mps 753 mmHg 86%
20:00 +13°C° 0 mm 1 mps 753 mmHg 87%
21:00 +13°C° 0 mm 1 mps 753 mmHg 87%
22:00 +13°C° 0 mm 1 mps 753 mmHg 88%
23:00 +12°C° 0 mm 1 mps 752 mmHg 89%
Show more